Location: Newark
(44.4156°N, 12.1972°E)
Time: 00:14:58
(UTC+00:00)

STARLINK-1081 - Pass Details

Date: 29 January 2020
Orbit: 348 x 351 km, 53.0° (Epoch: 17 February)

Event Time Altitude Azimuth Distance (km) Brightness Sun altitude
Rises 17:30:37 0° 306° (NW) 2,182 7.3 -13.5°
Reaches altitude 10° 17:32:44 10° 316° (NW) 1,336 6.0 -13.9°
Maximum altitude 17:35:31 35° 25° (NNE) 601 3.5 -14.4°
Enters shadow 17:36:04 32° 51° (NE) 646 3.5 -14.5°
